Location: Unspecified
(49.9820°N, 20.4363°E)
Time: 04:04:31
(UTC+02:00)

Vanguard 3 - Pass Details

Date: 22 May 2026
Orbit: 507 x 3204 km, 33.3° (Epoch: 6 June)

Event Time Altitude Azimuth Distance (km) Brightness Sun altitude
Rises 18:00:59 0° 274° (W) 7,071 13.5 20.9°
Reaches altitude 10° 18:06:56 10° 264° (W) 6,126 13.4 20.0°
Maximum altitude 18:20:43 25° 218° (SW) 4,663 11.5 17.8°
Drops below altitude 10° 18:32:26 10° 171° (S) 5,127 11.1 15.9°
Sets 18:36:52 0° 159° (SSE) 5,748 11.2 15.3°
